Regional Weather Roundup
Issued by NWS

Home | Current Version | Previous Version | Graphics & Text | Print | Product List | Glossary Off
Versions: 1 2 3 4 5 6 7 8 9 10 11 12 13 14 15 16 17 18 19 20 21 22 23 24 25 26 27 28 29 30 31 32 33 34 35 36 37 38 39 40 41 42 43 44 45 46 47 48 49 50

000
ASUS43 KMKX 040021
RWRWI

WISCONSIN REGIONAL WEATHER ROUNDUP
NATIONAL WEATHER SERVICE MILWAUKEE/SULLIVAN WI
700 PM CDT SUN MAY 03 2015

NOTE: "FAIR" INDICATES FEW OR NO CLOUDS BELOW 12,000 FEET WITH NO
SIGNIFICANT WEATHER AND/OR OBSTRUCTIONS TO VISIBILITY.

WIZ001-002-006>008-014>016-023>028-040100-
NORTHWEST WISCONSIN

CITY           SKY/WX    TMP DP  RH WIND       PRES   REMARKS
SUPERIOR ARPT  CLOUDY    59  53  79 S8        29.84F
6HR MIN TEMP:  56; 6HR MAX TEMP:  79; 6HR PCP:  0.03;

ASHLAND        PTSUNNY   65  41  41 NW8G23    29.86R
6HR MIN TEMP:  65; 6HR MAX TEMP:  82;

HAYWARD        PTSUNNY   64  45  49 N6        29.86R
6HR MIN TEMP:  62; 6HR MAX TEMP:  79; 6HR PCP:  0.07;

SIREN          CLOUDY    63  46  54 NE13      29.85F
6HR MIN TEMP:  61; 6HR MAX TEMP:  79;

CUMBERLAND     CLOUDY    64  37  36 N22G30    29.84R
RICE LAKE      CLOUDY    65  49  56 N21G29    29.79F
6HR MIN TEMP:  65; 6HR MAX TEMP:  80;

CHETEK         RAIN      62  56  81 N8G20     29.82R
LADYSMITH      CLOUDY    67  54  61 N18       29.83R
6HR MIN TEMP:  66; 6HR MAX TEMP:  79; 6HR PCP:  0.44;

EAU CLAIRE     TSTM      66  57  72 W23G35    29.84R
6HR MIN TEMP:  74; 6HR MAX TEMP:  81; 6HR PCP: TRACE;

MENOMONIE      TSTM      62  60  94 W24G35    29.84R
6HR MIN TEMP:  62; 6HR MAX TEMP:  81; 6HR PCP:  0.57;

NEW RICHMOND   CLOUDY    61  51  70 CALM      29.86F
6HR MIN TEMP:  59; 6HR MAX TEMP:  82; 6HR PCP:  0.10;

OSCEOLA        CLOUDY    67  40  38 N10G21    29.84F
6HR MIN TEMP:  65; 6HR MAX TEMP:  79; 6HR PCP:  0.24;

$$

WIZ003>005-009-010-017-018-040100-
NORTH CENTRAL WISCONSIN

CITY           SKY/WX    TMP DP  RH WIND       PRES   REMARKS
MANITOWISH WTR CLOUDY    64  55  71 N7        29.82S
6HR MIN TEMP:  64; 6HR MAX TEMP:  78; 6HR PCP:  0.04;

ARBOR VITAE    CLOUDY    63  58  82 N9        29.82F
6HR MIN TEMP:  62; 6HR MAX TEMP:  80; 6HR PCP:  0.02;

WOODRUFF       CLOUDY    63  58  82 N9        29.82F
6HR MIN TEMP:  62; 6HR MAX TEMP:  80; 6HR PCP:  0.02;

RHINELANDER    HVY RAIN  59  52  77 NW16G28   29.83R
6HR MIN TEMP:  68; 6HR MAX TEMP:  80;

EAGLE RIVER    HVY RAIN  61  52  72 N12G25    29.82R
6HR MIN TEMP:  61; 6HR MAX TEMP:  78; 6HR PCP:  0.15;

LAND O LAKES   RAIN      62  55  79 N12       29.82R
6HR MIN TEMP:  61; 6HR MAX TEMP:  80; 6HR PCP:  0.26;

PHILLIPS       CLOUDY    67  52  57 N9G18     29.82R
6HR MIN TEMP:  67; 6HR MAX TEMP:  78;

TOMAHAWK       MOSUNNY   73  49  41 CALM      29.78R
6HR MIN TEMP:  73; 6HR MAX TEMP:  79;

MEDFORD        PTSUNNY   74  52  46 S5        29.77F
6HR MIN TEMP:  72; 6HR MAX TEMP:  78;

MERRILL        PTSUNNY   74  51  44 SW7       29.78R
6HR MIN TEMP:  74; 6HR MAX TEMP:  80;

$$

WIZ029-030-035-036-043>047-040100-
CENTRAL WISCONSIN

CITY           SKY/WX    TMP DP  RH WIND       PRES   REMARKS
WAUSAU         MOSUNNY   75  52  44 SW9       29.76S
6HR MIN TEMP:  74; 6HR MAX TEMP:  79;

MOSINEE        MOSUNNY   73  52  46 SW8       29.78F
MARSHFIELD     MOSUNNY   75  52  44 SW6       29.77S
6HR MIN TEMP:  75; 6HR MAX TEMP:  81;

STEVENS POINT  MOSUNNY   74  52  46 S15       29.78S
6HR MIN TEMP:  74; 6HR MAX TEMP:  78;

WAUPACA        PTCLDY    78  51  38 S15       29.79F
6HR MIN TEMP:  78; 6HR MAX TEMP:  83;

WAUTOMA        CLEAR     75  54  48 S13G24    29.81S
6HR MIN TEMP:  75; 6HR MAX TEMP:  82;

WISC RAPIDS    SUNNY     76  50  40 S14       29.79S
6HR MIN TEMP:  75; 6HR MAX TEMP:  81;

CAMP DOUGLAS   SUNNY     75  55  49 S9        29.78S
6HR MIN TEMP:  75; 6HR MAX TEMP:  82;

$$

WIZ011>013-019>022-031-037>040-048>050-040100-
NORTHEAST WISCONSIN

CITY           SKY/WX    TMP DP  RH WIND       PRES   REMARKS
ANTIGO         CLEAR     73  51  46 SW10      29.78F
SHAWANO        CLEAR     79  50  36 SW7       29.77F
6HR MIN TEMP:  79; 6HR MAX TEMP:  83;

OCONTO         CLEAR     77  55  46 SW12G20   29.76F
6HR MIN TEMP:  77; 6HR MAX TEMP:  81;

STURGEON BAY   CLEAR     66  48  52 S10       29.81F
6HR MIN TEMP:  66; 6HR MAX TEMP:  72;

GREEN BAY      CLEAR     75  55  49 S15G25    29.79F
6HR MIN TEMP:  75; 6HR MAX TEMP:  79;

MANITOWOC      PTCLDY    75  54  47 SW16G24   29.83F
6HR MIN TEMP:  62; 6HR MAX TEMP:  76;

APPLETON       PTCLDY    73  52  46 S21G26    29.81F
CLINTONVILLE   PTCLDY    77  50  38 S14       29.78S
OSHKOSH        CLEAR     72  54  53 S16       29.82F
6HR MIN TEMP:  72; 6HR MAX TEMP:  78;

$$

WIZ032>034-041-042-053>061-040100-
SOUTHWEST WISCONSIN

CITY           SKY/WX    TMP DP  RH WIND       PRES   REMARKS
LA CROSSE      MOSUNNY   81  55  40 S13       29.73S HX  81
6HR MIN TEMP:  77; 6HR MAX TEMP:  85;

SPARTA         MOSUNNY   77  52  42 S13G21    29.77S
6HR MIN TEMP:  76; 6HR MAX TEMP:  82;

VIROQUA        MOSUNNY   73  57  55 S15G21    29.81R
6HR MIN TEMP:  73; 6HR MAX TEMP:  80;

BOSCOBEL       SUNNY     76  58  53 S8        29.80F
6HR MIN TEMP:  75; 6HR MAX TEMP:  80; 6HR PCP: TRACE;

PRAIRIE DU CHI SUNNY     76  54  46 SE7       29.79S
6HR MIN TEMP:  75; 6HR MAX TEMP:  79;

PLATTEVILLE    SUNNY     72  59  63 SE12      29.83F
6HR MIN TEMP:  69; 6HR MAX TEMP:  73;

$$

WIZ056-057-062-063-064-067-068-040100-
SOUTH CENTRAL WISCONSIN

CITY           SKY/WX    TMP DP  RH WIND       PRES   REMARKS
REEDSBURG      SUNNY     72  57  60 S7G16     29.81F
6HR MIN TEMP:  72; 6HR MAX TEMP:  77;

BARABOO/DELLS  NOT AVBL
LONE ROCK      SUNNY     72  57  59 S12       29.82F
6HR MIN TEMP:  72; 6HR MAX TEMP:  77;

MINERAL POINT  SUNNY     72  59  64 SE10      29.84F
MADISON        MOCLDY    70  54  56 S15       29.85F
6HR MIN TEMP:  70; 6HR MAX TEMP:  75;

MIDDLETON      CLEAR     72  52  48 S15       29.85F
6HR MIN TEMP:  72; 6HR MAX TEMP:  78;

WATERTOWN      PTCLDY    69  55  61 S13G21    29.86F
6HR MIN TEMP:  69; 6HR MAX TEMP:  76;

MONROE         CLEAR     64  59  82 SE12      29.86F
JANESVILLE     CLEAR     68  55  64 S16       29.87F
$$

WIZ051-052-058>065-066-070>072-040100-
SOUTHEAST WISCONSIN

CITY           SKY/WX    TMP DP  RH WIND       PRES   REMARKS
MILWAUKEE      CLOUDY    68  53  58 SW15G28   29.90F
6HR MIN TEMP:  67; 6HR MAX TEMP:  80;

WAUKESHA       CLEAR     66  52  59 SW12G23   29.90F
MILWAUKEE/TIMM PTCLDY    70  52  52 S15G24    29.91F
RACINE         LGT RAIN  65  57  75 VRB6      29.94S
6HR MIN TEMP:  64; 6HR MAX TEMP:  80; 6HR PCP: TRACE;

BURLINGTON     CLOUDY    63  57  81 S10G16    29.90F
6HR MIN TEMP:  60; 6HR MAX TEMP:  78; 6HR PCP:  0.18;

KENOSHA        LGT RAIN  64  59  83 SW16      29.92F
6HR MIN TEMP:  62; 6HR MAX TEMP:  79; 6HR PCP:  0.12;

FOND DU LAC    CLEAR     72  51  47 S18G28    29.83F
6HR MIN TEMP:  72; 6HR MAX TEMP:  79;

SHEBOYGAN      PTCLDY    72  54  53 S17G26    29.86F
6HR MIN TEMP:  72; 6HR MAX TEMP:  79;

WEST BEND      PTCLDY    68  50  52 S12G20    29.87F
JUNEAU         CLEAR     69  54  59 S16       29.87F
6HR MIN TEMP:  69; 6HR MAX TEMP:  76;

$$

LSZ147-162-040100-
LAKE SUPERIOR

STATION/POSITION TIME  TEMP    WIND        PRES    WAVE
                       AIR SEA DIR/SP/G            HT/PER
                 (UTC) (F)     (DEG/KT/KT) (MB)    (FT/S)
W MID LAKE BUOY  2350   52 36  310/ 19/ 23 1009.4S   1
DEVILS ISLAND    0000   52     280/ 10/ 11 1010.3R
PORT WING        2322          300/ 15     1011.2R
SAXON HARBOR     2300   62     300/ 11     1009.5R
$$

LMZ867-665-643>646-040100-
LAKE MICHIGAN

STATION/POSITION TIME  TEMP    WIND        PRES    WAVE
                       AIR SEA DIR/SP/G            HT/PER
                 (UTC) (F)     (DEG/KT/KT) (MB)    (FT/S)
CHAMBERS ISLAND  2300   70     130/  7/ 12 1008.8F



USA.gov is the U.S. government's official web portal to all federal, state and local government web resources and services.